GW3424 Weather Reports


Display with metric or nautical units.
time (UTC)temp
F
wind
direction
speed
MPH
gust
MPH
rain 1hr
in
rain 24hr
in
rain mn
in
humidity
%
barometer
mb
20260504234547 76 360 7.0 14.0 0.00 0.00 0.00 41 975.0
20260504234043 76 360 10.0 14.0 0.00 0.00 0.00 40 974.9
20260504233542 76 360 5.0 13.0 0.00 0.00 0.00 40 975.1
20260504233102 76 360 6.0 13.0 0.00 0.00 0.00 39 975.2
20260504232542 76 360 9.0 13.0 0.00 0.00 0.00 38 975.2
20260504232044 76 360 7.0 13.0 0.00 0.00 0.00 38 975.1
20260504231544 77 360 6.0 14.0 0.00 0.00 0.00 38 975.1
20260504231042 77 360 10.0 14.0 0.00 0.00 0.00 37 975.2
20260504230542 76 360 6.0 14.0 0.00 0.00 0.00 37 975.1
20260504230042 76 360 9.0 14.0 0.00 0.00 0.00 37 975.0
20260504225543 76 360 8.0 14.0 0.00 0.00 0.00 38 975.0
20260504225044 76 360 9.0 14.0 0.00 0.00 0.00 39 975.2
20260504224543 76 360 7.0 15.0 0.00 0.00 0.00 39 975.2
20260504224042 76 360 9.0 15.0 0.00 0.00 0.00 39 975.3
20260504223542 76 360 8.0 13.0 0.00 0.00 0.00 40 975.1
20260504223056 76 360 6.0 12.0 0.00 0.00 0.00 40 975.3
20260504222543 76 360 7.0 11.0 0.00 0.00 0.00 40 975.3
20260504222042 76 360 5.0 12.0 0.00 0.00 0.00 41 975.4
20260504221543 76 360 7.0 12.0 0.00 0.00 0.00 41 975.4
20260504221044 76 360 4.0 12.0 0.00 0.00 0.00 41 975.4
20260504220542 76 360 6.0 12.0 0.00 0.00 0.00 41 975.7
20260504220042 76 360 8.0 12.0 0.00 0.00 0.00 41 975.6
20260504215542 75 360 6.0 12.0 0.00 0.00 0.00 41 975.8
20260504215042 75 360 7.0 12.0 0.00 0.00 0.00 41 976.0
20260504214542 75 360 6.0 11.0 0.00 0.00 0.00 42 975.7
20260504214046 75 360 6.0 11.0 0.00 0.00 0.00 42 976.0
20260504213542 75 360 7.0 14.0 0.00 0.00 0.00 42 976.0
20260504213053 74 360 9.0 14.0 0.00 0.00 0.00 42 976.2
20260504212543 75 360 6.0 14.0 0.00 0.00 0.00 42 976.3
20260504212042 75 360 8.0 15.0 0.00 0.00 0.00 42 976.4
20260504211542 75 360 9.0 15.0 0.00 0.00 0.00 42 976.4
20260504211042 75 360 4.0 15.0 0.00 0.00 0.00 42 976.3
20260504210542 74 360 9.0 15.0 0.00 0.00 0.00 42 976.4
20260504210043 74 360 6.0 14.0 0.00 0.00 0.00 43 976.6
20260504205542 74 360 2.0 14.0 0.00 0.00 0.00 43 976.5
20260504205045 74 360 6.0 14.0 0.00 0.00 0.00 43 976.6
20260504204547 74 360 6.0 14.0 0.00 0.00 0.00 44 976.6
20260504204042 74 360 6.0 14.0 0.00 0.00 0.00 44 976.7
20260504203542 74 360 7.0 14.0 0.00 0.00 0.00 44 976.8
20260504203058 74 360 3.0 15.0 0.00 0.00 0.00 45 976.8
20260504202542 74 360 9.0 16.0 0.00 0.00 0.00 45 976.9
20260504202046 74 360 8.0 16.0 0.00 0.00 0.00 45 977.1
20260504201542 73 360 7.0 17.0 0.00 0.00 0.00 45 976.9
20260504201042 73 360 9.0 17.0 0.00 0.00 0.00 44 977.1
20260504200542 73 360 6.0 17.0 0.00 0.00 0.00 44 977.0
20260504200044 73 360 10.0 17.0 0.00 0.00 0.00 44 977.0
20260504195542 73 360 8.0 15.0 0.00 0.00 0.00 45 976.9
20260504195042 73 360 11.0 17.0 0.00 0.00 0.00 45 976.9
20260504194542 72 360 9.0 16.0 0.00 0.00 0.00 45 976.9
20260504194045 72 360 9.0 19.0 0.00 0.00 0.00 45 976.7
20260504193545 72 360 12.0 19.0 0.00 0.00 0.00 45 976.9
20260504193043 72 360 10.0 19.0 0.00 0.00 0.00 44 976.6
20260504192542 72 360 9.0 17.0 0.00 0.00 0.00 45 976.6
20260504192044 72 360 12.0 17.0 0.00 0.00 0.00 45 976.7
20260504191543 72 360 12.0 17.0 0.00 0.00 0.00 45 976.6
20260504191042 72 360 10.0 16.0 0.00 0.00 0.00 45 976.4
20260504190542 72 360 12.0 16.0 0.00 0.00 0.00 45 976.6
20260504190046 72 360 11.0 18.0 0.00 0.00 0.00 45 976.8
20260504185542 72 360 12.0 23.0 0.00 0.00 0.00 45 976.8
20260504185042 72 360 13.0 23.0 0.00 0.00 0.00 46 976.8
20260504184542 71 360 10.0 21.0 0.00 0.00 0.00 46 976.7
20260504184042 72 360 12.0 19.0 0.00 0.00 0.00 46 976.7
20260504183542 72 360 11.0 19.0 0.00 0.00 0.00 46 976.6
20260504183042 72 360 13.0 19.0 0.00 0.00 0.00 46 976.6
20260504182546 72 360 7.0 21.0 0.00 0.00 0.00 46 976.6
20260504182042 71 360 9.0 21.0 0.00 0.00 0.00 47 977.0
20260504181546 71 360 10.0 15.0 0.00 0.00 0.00 47 976.7
20260504181042 71 360 5.0 14.0 0.00 0.00 0.00 47 976.7
20260504180542 71 360 6.0 14.0 0.00 0.00 0.00 47 977.0
20260504180043 71 360 7.0 15.0 0.00 0.00 0.00 48 977.2
20260504175543 71 360 8.0 15.0 0.00 0.00 0.00 48 977.4
20260504175042 71 360 8.0 17.0 0.00 0.00 0.00 49 977.4
20260504174544 71 360 9.0 17.0 0.00 0.00 0.00 49 977.4
20260504174042 71 360 11.0 19.0 0.00 0.00 0.00 49 977.1
20260504173543 71 360 8.0 20.0 0.00 0.00 0.00 49 976.9
20260504173042 71 360 12.0 20.0 0.00 0.00 0.00 50 976.8
20260504172543 71 360 14.0 19.0 0.00 0.00 0.00 50 976.5
20260504172042 70 360 8.0 14.0 0.00 0.00 0.00 50 976.2
20260504171547 70 360 5.0 11.0 0.00 0.00 0.00 50 975.9
20260504171042 70 360 3.0 13.0 0.00 0.00 0.00 51 976.1
20260504170542 70 360 9.0 15.0 0.00 0.00 0.00 51 976.2
20260504151043 70 360 8.0 17.0 0.00 0.00 0.00 51 976.4
20260504150542 70 360 8.0 17.0 0.00 0.00 0.00 50 976.3
20260504141042 72 360 5.0 9.0 0.00 0.00 0.00 41 975.0
20260504140542 72 360 3.0 9.0 0.00 0.00 0.00 41 974.8
20260504130542 73 360 7.0 11.0 0.00 0.00 0.00 39 975.1
20260504110543 73 360 0.0 4.0 0.00 0.00 0.00 39 974.3
20260504100542 74 360 4.0 6.0 0.00 0.00 0.00 38 974.2
20260504081542 78 360 8.0 12.0 0.00 0.00 0.00 35 973.7
20260504081042 78 360 6.0 12.0 0.00 0.00 0.00 35 973.7
20260504080544 78 360 7.0 11.0 0.00 0.00 0.00 35 973.8
20260504050543 81 360 16.0 33.0 0.00 0.00 0.00 27 972.9
20260504045541 82 360 16.0 34.0 0.00 0.00 0.00 26 972.8
20260504045042 82 360 13.0 28.0 0.00 0.00 0.00 26 972.8
20260504044546 82 360 13.0 25.0 0.00 0.00 0.00 25 973.0
20260504044042 82 360 17.0 26.0 0.00 0.00 0.00 25 973.1
20260504043543 82 360 12.0 26.0 0.00 0.00 0.00 25 972.9
20260504043042 83 360 12.0 27.0 0.00 0.00 0.00 24 972.9
20260504042541 83 360 13.0 25.0 0.00 0.00 0.00 24 972.9
20260504042042 83 360 14.0 28.0 0.00 0.00 0.00 24 972.9
20260504041542 83 360 14.0 28.0 0.00 0.00 0.00 23 972.9
20260504041046 83 360 13.0 25.0 0.00 0.00 0.00 23 972.5
20260504040542 83 360 10.0 26.0 0.00 0.00 0.00 21 972.5
20260504040100 84 360 12.0 26.0 0.00 0.00 0.00 21 972.3
20260504035542 84 360 12.0 25.0 0.00 0.00 0.00 21 972.3
20260504035042 84 360 15.0 25.0 0.00 0.00 0.00 20 972.3
20260504034606 84 360 14.0 27.0 0.00 0.00 0.00 20 972.1
20260504034043 84 360 16.0 25.0 0.00 0.00 0.00 19 972.0
20260504033546 84 360 16.0 24.0 0.00 0.00 0.00 19 971.9
20260504033042 84 360 14.0 24.0 0.00 0.00 0.00 19 971.9
20260504032543 84 360 15.0 28.0 0.00 0.00 0.00 18 971.7
20260504032044 85 360 19.0 28.0 0.00 0.00 0.00 18 971.5
20260504031541 85 360 14.0 29.0 0.00 0.00 0.00 17 971.5
20260504031042 85 360 18.0 29.0 0.00 0.00 0.00 17 971.4
20260504030542 85 360 16.0 31.0 0.00 0.00 0.00 17 971.3
20260504030058 86 360 19.0 31.0 0.00 0.00 0.00 17 971.2
20260504025542 86 360 17.0 27.0 0.00 0.00 0.00 17 971.2
20260504025042 86 360 16.0 27.0 0.00 0.00 0.00 17 971.0
20260504024544 86 360 14.0 30.0 0.00 0.00 0.00 17 971.0
20260504024041 86 360 19.0 30.0 0.00 0.00 0.00 16 970.7
20260504023542 86 360 16.0 25.0 0.00 0.00 0.00 17 970.8
20260504023042 87 360 17.0 26.0 0.00 0.00 0.00 16 970.8
20260504022542 87 360 17.0 26.0 0.00 0.00 0.00 16 970.6
20260504022042 87 360 14.0 24.0 0.00 0.00 0.00 16 970.7
20260504021546 87 360 14.0 24.0 0.00 0.00 0.00 15 970.7
20260504021041 88 360 15.0 24.0 0.00 0.00 0.00 15 970.4
20260504020545 88 360 13.0 25.0 0.00 0.00 0.00 14 970.3
20260504020042 88 360 14.0 25.0 0.00 0.00 0.00 13 970.5
20260504015542 89 360 14.0 29.0 0.00 0.00 0.00 13 970.3
20260504015043 89 360 18.0 29.0 0.00 0.00 0.00 13 970.0
20260504014542 89 360 16.0 29.0 0.00 0.00 0.00 13 970.1
20260504014042 89 360 19.0 28.0 0.00 0.00 0.00 13 970.1
20260504013542 89 360 14.0 28.0 0.00 0.00 0.00 14 970.1
20260504013049 90 360 18.0 28.0 0.00 0.00 0.00 14 970.1
20260504012542 90 360 14.0 28.0 0.00 0.00 0.00 14 970.1
20260504012044 90 360 15.0 28.0 0.00 0.00 0.00 14 970.0
20260504011542 90 360 16.0 29.0 0.00 0.00 0.00 15 969.9
20260504011041 90 360 14.0 29.0 0.00 0.00 0.00 15 970.1
20260504010542 91 360 19.0 28.0 0.00 0.00 0.00 15 970.0
20260504010042 91 360 15.0 29.0 0.00 0.00 0.00 15 970.2
20260504005542 91 360 17.0 27.0 0.00 0.00 0.00 15 970.1
20260504005046 92 360 14.0 24.0 0.00 0.00 0.00 15 970.1
20260504004542 92 360 13.0 25.0 0.00 0.00 0.00 15 970.1
20260504004041 92 360 15.0 24.0 0.00 0.00 0.00 15 970.3
20260504003542 92 360 14.0 25.0 0.00 0.00 0.00 14 970.3
20260504003042 92 360 15.0 25.0 0.00 0.00 0.00 14 970.2
20260504002543 92 360 11.0 20.0 0.00 0.00 0.00 14 970.2
20260504002042 92 360 11.0 26.0 0.00 0.00 0.00 14 970.1
20260504001557 92 360 15.0 26.0 0.00 0.00 0.00 14 970.3
20260504001042 93 360 16.0 25.0 0.00 0.00 0.00 14 970.2
20260504000542 93 360 14.0 25.0 0.00 0.00 0.00 13 970.0
20260504000041 93 360 17.0 27.0 0.00 0.00 0.00 13 970.1
20260503235542 93 360 15.0 27.0 0.00 0.00 0.00 13 970.2
20260503235046 93 360 10.0 26.0 0.00 0.00 0.00 13 970.1